Regional Weather Roundup
Issued by NWS

Home | Current Version | Previous Version | Text Only | Print | Product List | Glossary On
Versions: 1 2 3 4 5 6 7 8 9 10 11 12 13 14 15 16 17 18 19 20 21 22 23 24 25 26 27 28 29 30 31 32 33 34 35 36 37 38 39 40 41 42 43 44 45 46 47 48 49 50
000
ASUS43 KDMX 290507
RWRIA

WEATHER ROUNDUP FOR IOWA
NATIONAL WEATHER SERVICE DES MOINES IA
1100 PM CST WED JAN 28 2015

NOTE: "FAIR" INDICATES FEW OR NO CLOUDS BELOW 12,000 FEET WITH NO
SIGNIFICANT WEATHER AND/OR OBSTRUCTIONS TO VISIBILITY.

* - THESE STATIONS ARE NOT NWS STATIONS...THUS NOT UNDER NWS
QUALITY CONTROL.  THEY ALSO DO NOT REPORT WEATHER SUCH
AS PRECIPITATION OR FOG.

IAZ001>003-012>014-020>022-031>034-043>046-290600-
   NORTHWEST IOWA

CITY           SKY/WX    TMP DP  RH WIND       PRES   REMARKS
CARROLL *      CLOUDY    36  34  93 NW23      29.83R WCI  24
CHEROKEE *     CLOUDY    36  34  93 N20G31    29.90R WCI  25
DENISON *      CLOUDY    39  36  87 N29G40    29.87R WCI  28
LE MARS *      CLOUDY    37  34  87 NW30G40   29.95R WCI  25
ORANGE CITY *  CLOUDY    36  34  93 NW24G32   29.92R FOG     WCI  24
SHELDON *      MIX PCPN  36  36 100 N21G33    29.90R WCI  24
SIOUX CITY     FLURRIES  37  33  85 NW39G53   29.94R WCI  23
SPENCER        CLOUDY    35  32  88 NW26G36   29.88R FOG     WCI  22
STORM LAKE *   CLOUDY    36  34  93 NW26G36   29.87R FOG     WCI  23
$$

IAZ055>058-069>071-079>083-090>094-290600-
   SOUTHWEST IOWA

CITY           SKY/WX    TMP DP  RH WIND       PRES   REMARKS
ATLANTIC *     CLOUDY    41  36  81 NW21G31   29.83R
AUDUBON *      CLEAR     39  34  81 NW20G30   29.84R WCI  30
CLARINDA *     CLEAR     45  37  76 NW20G31   29.84R
COUNCIL BLFS * CLOUDY    43  39  87 NW21G31   29.87R
CRESTON *      CLEAR     39  36  87 NW21      29.77R WCI  29
HARLAN  *      CLOUDY    41  41 100 N28       29.90R
LAMONI         CLEAR     40  34  79 NW10      29.73R WCI  33
RED OAK *      CLOUDY    45  37  76 NW18      29.85R
SHENANDOAH *   CLEAR     45  37  76 NW28G37   29.86R
$$

IAZ047>049-059>061-072>074-084-290600-
   CENTRAL IOWA

CITY           SKY/WX    TMP DP  RH WIND       PRES   REMARKS
AMES           CLOUDY    34  31  88 NW15      29.75R WCI  24
ANKENY *       PTCLDY    34  34 100 NW7       29.73R WCI  28
CHARITON *     CLEAR     36  34  93 NW9       29.70R WCI  29
DES MOINES     MOCLDY    36  32  85 NW9       29.72R WCI  29
GRINNELL*      CLEAR     32  30  93 N6        29.68F WCI  26
KNOXVILLE *    CLEAR     32  30  93 NW8       29.68R WCI  25
MARSHALLTOWN   MOCLDY    32  30  92 NE5       29.70R WCI  27
PELLA *        CLEAR     32  31  93 N7        29.70R WCI  26
PERRY *          N/A     36  34  93 NW21G28   29.77R FOG     WCI  24
$$

IAZ004>006-015-016-023>025-035-036-290600-
   NORTH CENTRAL IOWA

CITY           SKY/WX    TMP DP  RH WIND       PRES   REMARKS
ALGONA *       CLOUDY    34  34 100 N17G25    29.83R FOG     WCI  23
CLARION *      MIX PCPN  34  34 100 N16       29.78R WCI  23
ESTHERVILLE    CLOUDY    33  31  92 N23G29    29.85R WCI  21
FORT DODGE *   CLOUDY    34  30  86 NW14G21   29.81R WCI  24
MASON CITY     CLOUDY    33  31  92 N9        29.79R FOG     WCI  25
FOREST CITY *  DRIZZLE   34  32  93 NW16      29.79R WCI  23
IOWA FALLS *   CLOUDY    34  32  93 N6        29.74R FOG     WCI  29
$$

IAZ007>011-017>019-026>030-037>042-050>054-066-290600-
   NORTHEAST IOWA

CITY           SKY/WX    TMP DP  RH WIND       PRES   REMARKS
CEDAR RAPIDS   CLEAR     31  30  96 E5        29.68S WCI  26
CHARLES CITY * CLOUDY    32  32 100 N6        29.76R WCI  26
CLINTON *      CLEAR     34  28  80 SE12      29.75F WCI  25
DECORAH *      CLOUDY    32  28  86 E5        29.75S WCI  27
DUBUQUE        PTCLDY    31  28  89 SE7       29.71F WCI  24
MONTICELLO *   CLEAR     32  32 100 E8        29.70F WCI  25
OELWEIN *      CLOUDY    32  30  93 NE7       29.73R WCI  26
WATERLOO       CLOUDY    31  31 100 N8        29.72R WCI  23
$$

IAZ064-065-067-068-078-290600-
   EAST CENTRAL IOWA

CITY           SKY/WX    TMP DP  RH WIND       PRES   REMARKS
DAVENPORT      CLEAR     36  29  75 SE8       29.71F WCI  30
IOWA CITY      CLEAR     35  31  85 E5        29.69F WCI  31
MT. PLEASANT * MOCLDY    39  32  75 SE17G23   29.66F WCI  30
MUSCATINE *    CLEAR     39  32  75 SE10G16   29.69F WCI  32
QUAD CITIES    CLEAR     38  31  76 SE8       29.70F WCI  32
$$

IAZ062-063-075>077-085>089-095>099-290600-
   SOUTHEAST IOWA

CITY           SKY/WX    TMP DP  RH WIND       PRES   REMARKS
BURLINGTON     MOCLDY    41  33  73 S15       29.68F
FAIRFIELD *    PTCLDY    41  34  75 S12       29.64F
FORT MADISON * CLEAR     39  34  81 S16       29.69F WCI  30
KEOKUK *       CLEAR     45  36  70 S10       29.68F
OSKALOOSA *      N/A     32  30  93 NE5       29.65F WCI  27
CENTERVILLE *    N/A     46  39  76 W18       29.68R
OTTUMWA        PTCLDY    35  32  88 CALM      29.64S
WASHINGTON *   CLEAR     37  36  93 S6        29.66S WCI  33
$$

ABBREVIATIONS USED IN REMARKS
   TC - TEMPERATURES IN CELSIUS
  WCI - WIND CHILL INDEX
   HX - HEAT INDEX
  VSB - VISIBILITY
$$



USA.gov is the U.S. government's official web portal to all federal, state and local government web resources and services.